SCP
0 0 0 0 0 0 0 0 0 0 0 0 0 0 0 0 0 0 0 0 0 0 0 0 0 0 0 0 0 0 0 0 0 0 0 0 0 0 0 0 0 0 0
0 0 0 0 0 0 0 0 0 0 0 0 0 0 0 0 0 0 0 0 0 0 0 0 0 0 0 0 0 0 0 0 0 0 0 0 0 0 0 0 0 0 0
0 0 0 0 0 0 0 0 0 0 0 0 0 0 0 0 0 0 0 0 0 0 0 0 0 0 0 0 0 0 0 0 0 0 0 0 0 0 0 0 0 0 0
0 0 0 0 0 0 0 0 0 0 0 0 0 0 0 0 0 0 0 0 0 0 0 0 0 0 0 0 0 0 0 0 0 0 0 0 0 0 0 0 0 0 0
0 0 0 0 0 0 0 0 0 0 0 0 0 0 0 0 0 0 0 0 0 0 0 0 0 0 0 0 0 0 0 0 0 0 0 0 0 0 0 0 0 0 0
0 0 0 0 0 0 0 0 0 0 0 0 0 0 0 0 0 0 0 0 0 0 0 0 0 0 0 0 0 0 0 0 0 0 0 0 0 0 0 0 0 0 0
0 0 0 0 0 0 0 0 0 0 0 0 0 0 0 0 0 0 0 0 0 0 0 0 0 0 0 0 0 0 0 0 0 0 0 0 0 0 0 0 0 0 0
0 0 0 0 0 0 0 0 0 0 0 0 0 0 0 0 0 0 0 0 0 0 0 0 0 0 0 0 0 0 0 0 0 0 0 0 0 0 0 0 0 0 0
0 0 0 0 0 0 0 0 0 0 0 0 0 0 0 0 0 0 0 0 0 0 0 0 0 0 0 0 0 0 0 0 0 0 0 0 0 0 0 0 0 0 0
0 0 0 0 0 0 0 0 0 0 0 0 0 0 0 0 0 0 0 0 0 0 0 0 0 0 0 0 0 0 0 0 0 0 0 0 0 0 0 0 0 0 0
0 0 0 0 0 0 0 0 0 0 0 0 0 0 0 0 0 0 0 0 0 0 0 0 0 0 0 0 0 0 0 0 0 0 0 0 0 0 0 0 0 0 0
0 0 0 0 0 0 0 0 0 0 0 0 0 0 0 0 0 0 0 0 0 0 0 0 0 0 0 0 0 0 0 0 0 0 0 0 0 0 0 0 0 0 0
0 0 0 0 0 0 0 0 0 0 0 0 0 0 0 0 0 0 0 0 0 0 0 0 0 0 0 0 0 0 0 0 0 0 0 0 0 0 0 0 0 0 0
0 0 0 0 0 0 0 0 0 0 0 0 0 0 0 0 0 0 0 0 0 0 0 0 0 0 0 0 0 0 0 0 0 0 0 0 0 0 0 0 0 0 0
0 0 0 0 0 0 0 0 0 0 0 0 0 0 0 0 0 0 0 0 0 0 0 0 0 0 0 0 0 0 0 0 0 0 0 0 0 0 0 0 0 0 0
0 0 0 0 0 0 0 0 0 0 0 0 0 0 0 0 0 0 0 0 0 0 0 0 0 0 0 0 0 0 0 0 0 0 0 0 0 0 0 0 0 0 0
0 0 0 0 0 0 0 0 0 0 0 0 0 0 0 0 0 0 0 0 0 0 0 0 0 0 0 0 0 0 0 0 0 0 0 0 0 0 0 0 0 0 0
0 0 0 0 0 0 0 0 0 0 0 0 0 0 0 0 0 0 0 0 0 0 0 0 0 0 0 0 0 0 0 0 0 0 0 0 0 0 0 0 0 0 0
0 0 0 0 0 0 0 0 0 0 0 0 0 0 0 0 0 0 0 0 0 0 0 0 0 0 0 0 0 0 0 0 0 0 0 0 0 0 0 0 0 0 0
0 0 0 0 0 0 0 0 0 0 0 0 0 0 0 0 0 0 0 0 0 0 0 0 0 0 0 0 0 0 0 0 0 0 0 0 0 0 0 0 0 0 0
0 0 0 0 0 0 0 0 0 0 0 0 0 0 0 0 0 0 0 0 0 0 0 0 0 0 0 0 0 0 0 0 0 0 0 0 0 0 0 0 0 0 0
0 0 0 0 0 0 0 0 0 0 0 0 0 0 0 0 0 0 0 0 0 0 0 0 0 0 0 0 0 0 0 0 0 0 0 0 0 0 0 0 0 0 0
0 0 0 0 0 0 0 0 0 0 0 0 0 0 0 0 0 0 0 0 0 0 0 0 0 0 0 0 0 0 0 0 0 0 0 0 0 0 0 0 0 0 0
0 0 0 0 0 0 0 0 0 0 0 0 0 0 0 0 0 0 0 0 0 0 0 0 0 0 0 0 0 0 0 0 0 0 0 0 0 0 0 0 0 0 0
0 0 0 0 0 0 0 0 0 0 0 0 0 0 0 0 0 0 0 0 0 0 0 0 0 0 0 0 0 0 0 0 0 0 0 0 0 0 0 0 0 0 0
0 0 0 0 0 0 0 0 0 0 0 0 0 0 0 0 0 0 0 0 0 0 0 0 0 0 0 0 0 0 0 0 0 0 0 0 0 0 0 0 0 0 0
Wind_Speed
0 1 5 6 7 8 8 8 9 9 9 10 10 10 10 10 10 10 10 10 10 10 10 10 10 9 9 9 8 9 10 10 9 9 8 8 8 8 8 8 7 4 7
3 2 6 7 8 8 8 8 9 9 9 9 10 10 10 10 10 10 10 10 10 10 10 10 10 10 9 10 9 10 10 10 9 9 8 7 7 7 8 8 7 4 7
4 3 4 7 8 8 8 8 9 9 10 10 10 10 10 10 10 10 11 10 10 10 10 10 10 10 10 10 10 11 11 10 10 9 8 4 4 7 7 7 7 7 6
5 3 4 7 8 8 8 8 9 9 10 10 11 10 10 10 10 11 10 10 10 10 10 10 10 10 10 10 10 10 10 10 10 9 5 4 3 7 7 7 7 7 6
5 3 4 7 8 7 8 8 9 10 10 11 11 11 10 10 10 10 10 10 10 9 10 10 10 10 9 10 10 10 10 10 10 8 4 4 3 6 7 7 7 7 7
5 3 4 7 7 7 7 8 9 10 10 11 11 11 11 10 10 10 10 10 10 10 10 9 9 9 9 9 9 10 10 10 8 5 4 3 3 7 8 7 8 7 7
4 3 4 7 7 7 7 9 10 10 10 11 11 11 11 11 10 10 10 10 9 9 9 9 9 9 9 9 9 10 10 10 6 5 4 3 4 8 9 8 7 7 7
5 4 4 7 8 7 9 10 11 10 10 10 10 10 10 10 10 9 9 9 9 9 9 9 8 8 8 8 9 9 9 8 6 5 4 3 6 8 8 8 7 7 7
4 4 3 3 5 7 9 11 11 10 10 9 9 9 8 8 8 8 8 8 9 8 8 8 8 8 8 8 8 9 9 9 4 3 4 3 7 8 8 8 7 7 7
4 4 3 3 3 3 4 8 9 8 8 8 7 7 6 6 6 6 6 7 7 7 7 7 8 8 8 8 8 8 9 7 4 3 2 3 7 8 8 8 7 7 7
4 3 3 2 2 2 3 5 5 6 6 5 4 6 5 2 2 2 3 5 6 6 6 7 7 7 7 7 8 9 7 3 3 2 2 6 8 8 8 8 7 7 7
4 3 2 3 2 2 3 3 2 2 3 2 2 2 2 1 1 2 3 4 4 5 5 6 6 6 5 3 5 6 3 3 3 2 2 6 7 8 8 8 8 7 7
5 4 3 3 3 3 2 2 1 1 1 2 2 1 1 2 1 2 2 2 2 3 3 4 4 3 3 3 2 2 2 2 2 1 2 6 7 8 7 7 7 7 7
5 5 4 4 3 3 3 2 2 2 1 1 1 1 1 1 2 1 1 1 1 1 2 2 2 3 3 3 3 3 3 2 2 1 2 6 7 7 7 7 7 7 6
5 5 4 4 4 3 3 2 3 2 1 1 1 1 2 2 1 1 1 1 1 1 1 2 2 3 3 3 3 4 3 3 2 2 2 5 6 6 6 6 6 6 6
5 5 4 5 4 4 3 2 2 2 2 2 2 2 3 2 1 2 2 2 2 2 2 2 2 2 2 3 3 3 3 2 3 2 2 3 4 5 6 5 5 6 6
5 6 5 5 4 4 4 3 3 2 2 2 2 3 3 2 2 3 3 2 2 2 3 3 3 3 3 3 3 3 2 2 2 2 2 2 2 4 5 5 6 5 5
6 6 6 6 5 4 3 3 2 2 3 2 2 3 4 4 4 3 3 2 2 2 3 3 3 3 3 3 2 2 2 2 3 2 2 2 2 2 4 5 6 6 6
6 6 6 5 6 4 3 3 3 3 3 2 2 3 3 4 4 4 3 2 3 3 3 3 3 2 3 3 2 2 2 2 2 3 3 3 2 2 2 3 5 5 5
6 5 6 5 5 5 3 3 3 3 2 2 2 2 3 3 4 4 3 3 3 3 3 3 3 3 2 2 2 3 2 2 2 3 2 2 2 2 2 3 2 3 5
5 5 6 6 5 4 3 3 3 2 1 1 2 2 3 3 4 4 3 3 3 3 2 2 2 3 3 2 3 3 3 3 3 2 2 2 2 2 2 2 2 2 2
6 6 6 6 5 4 3 3 3 2 1 1 1 2 3 4 3 4 3 3 3 3 3 3 3 2 2 2 2 2 3 4 3 3 2 2 2 2 2 3 3 3 2
5 6 5 5 5 4 4 3 3 3 2 2 2 1 2 3 3 3 3 3 3 3 2 2 2 3 1 2 1 3 2 1 2 3 2 2 2 2 1 2 3 3 2
5 5 5 5 5 4 4 4 5 4 2 2 1 1 1 2 2 3 3 3 2 2 2 1 2 1 2 1 1 1 1 2 2 1 3 2 2 2 2 2 2 2 2
5 5 5 5 4 4 4 4 5 3 2 1 1 2 1 1 2 2 2 2 2 2 2 2 2 2 1 1 1 0 1 1 1 2 1 3 3 2 1 1 1 1 1
5 5 5 6 4 4 4 4 4 4 3 3 2 2 1 1 1 2 2 2 2 2 1 1 2 2 2 2 1 1 1 1 0 1 1 1 2 2 1 1 1 1 1
Wind_Direction
168 159 106 94 95 91 87 83 80 76 75 76 78 80 81 80 79 80 79 79 79 78 75 75 74 70 70 76 94 109 116 114 108 105 105 101 100 101 101 97 92 90 97
156 137 108 97 99 96 91 88 84 81 79 79 80 81 84 83 82 82 81 80 80 78 75 75 72 69 69 71 87 104 108 107 103 102 100 99 99 100 101 100 98 99 102
130 124 113 102 101 98 93 89 86 84 83 83 84 82 83 84 85 85 82 81 81 80 76 76 76 71 71 73 80 91 96 97 100 98 93 86 96 100 101 99 98 100 100
129 122 114 107 102 99 96 92 89 88 88 86 86 84 83 83 84 84 82 81 81 81 79 78 76 73 71 73 79 87 92 93 97 95 84 74 87 98 97 96 96 99 101
120 116 118 110 107 104 101 96 94 90 89 88 88 85 82 83 85 85 82 80 80 80 79 79 76 74 74 74 78 87 90 90 94 84 77 73 76 95 97 93 90 89 93
114 113 122 113 108 105 105 103 98 94 91 89 87 84 81 82 84 86 83 82 81 81 80 80 79 76 76 75 76 83 85 85 85 75 72 71 76 88 90 88 84 82 86
119 117 123 115 109 103 104 108 104 99 95 92 89 87 83 83 85 86 83 82 82 82 82 80 81 81 78 77 79 82 82 84 83 77 71 69 83 88 85 82 82 80 82
129 123 114 114 110 99 101 106 105 100 96 94 93 88 85 84 84 85 85 83 82 81 80 78 79 82 79 76 78 82 83 85 86 82 73 71 88 89 85 79 76 75 75
122 113 95 100 103 101 97 102 103 100 97 96 94 92 90 86 86 85 83 83 81 81 80 76 75 76 76 76 78 77 80 84 83 83 87 76 88 87 84 78 73 71 69
110 109 104 93 90 89 93 101 105 106 104 99 96 92 93 92 88 85 83 83 84 83 80 77 74 71 71 71 73 74 79 81 75 76 77 91 93 90 84 79 76 74 71
108 108 119 115 106 107 109 102 98 101 96 93 88 83 75 58 53 61 72 83 84 82 78 74 73 71 67 63 70 70 70 69 72 70 75 95 96 94 89 83 79 77 75
137 139 136 138 129 115 115 96 77 75 70 69 66 64 58 58 42 60 56 66 73 76 69 63 62 64 60 51 62 63 61 66 66 63 81 94 96 98 92 86 84 80 78
155 150 147 142 129 118 105 108 86 70 65 61 53 58 63 49 37 35 31 30 36 55 49 46 45 41 48 56 62 65 65 69 61 50 75 95 97 97 93 85 82 78 76
146 151 151 146 128 123 117 113 107 98 87 75 51 59 79 68 59 60 45 30 36 37 44 47 49 44 49 57 70 70 66 72 65 47 70 93 97 92 88 86 80 75 72
147 152 153 143 135 129 117 114 107 109 107 100 67 58 82 83 79 88 73 52 49 49 58 63 62 58 55 57 67 74 68 67 70 57 54 83 87 88 86 82 79 72 68
145 145 147 142 139 132 125 120 118 120 104 80 67 62 70 81 97 102 84 70 64 67 76 78 70 73 70 70 65 67 72 71 71 64 53 62 73 77 77 77 75 71 68
154 143 141 136 131 132 127 121 110 109 94 77 69 64 65 66 83 93 90 76 62 61 70 68 58 60 66 62 56 58 69 68 76 67 55 42 37 56 66 70 68 69 67
149 142 144 134 126 124 124 115 106 98 93 82 73 64 59 65 75 79 79 73 69 69 67 74 60 58 53 50 50 46 46 53 65 62 58 48 34 32 43 56 59 64 66
155 145 140 131 130 129 122 111 104 97 89 79 71 69 64 66 75 82 78 64 65 66 59 70 59 64 59 40 41 51 43 48 54 67 60 51 39 36 34 40 50 56 61
149 142 139 129 129 127 117 98 83 76 71 68 71 73 74 65 73 78 74 60 63 69 58 57 61 51 61 51 56 44 27 33 48 57 58 50 36 35 38 35 35 40 53
144 145 146 139 148 142 130 121 110 108 95 64 65 72 78 75 76 78 71 62 64 72 69 66 71 57 36 43 59 26 12 27 45 40 42 50 40 29 41 44 36 28 26
161 162 158 156 156 154 150 146 142 140 128 106 71 63 71 82 82 84 79 75 68 71 58 57 69 68 36 42 90 77 17 357 2 20 26 43 33 32 37 43 42 38 17
160 169 164 166 158 154 146 124 102 78 60 51 53 54 51 89 94 91 86 82 75 83 80 71 78 93 79 9 62 118 125 230 313 337 4 19 18 27 15 32 43 38 35
167 160 150 153 148 147 141 137 137 141 149 180 171 131 88 92 104 102 97 93 87 81 80 65 77 84 103 56 5 35 129 157 146 317 329 350 1 16 20 45 44 28 28
156 150 142 130 126 130 133 146 147 142 155 144 120 101 87 71 86 96 101 95 89 80 72 64 64 67 88 108 95 52 53 51 95 137 287 323 343 345 3 21 43 24 9
139 138 133 125 125 131 131 135 142 145 138 125 124 127 114 71 57 70 94 90 90 84 78 84 83 80 81 90 85 84 105 107 159 140 195 281 305 310 339 355 7 344 335